Location: Dal�� Lhota
(48.7500°N, 14.0167°E)
Time: 06:24:52
(UTC+00:00)

Transit 2A - Pass Details

Date: 04 August 2021
Orbit: 594 x 964 km, 66.7° (Epoch: 24 September)

Event Time Altitude Azimuth Distance (km) Brightness Sun altitude
Rises 12:12:20 0° 326° (NW) 3,193 9.0 55.9°
Reaches altitude 10° 12:14:42 10° 332° (NNW) 2,323 8.4 55.7°
Maximum altitude 12:19:55 50° 48° (NE) 1,053 7.0 55.3°
Drops below altitude 10° 12:25:39 10° 123° (ESE) 2,551 8.8 54.8°
Sets 12:28:20 0° 129° (SE) 3,534 9.5 54.6°
